Location: Lane
(33.5226°N, 79.8788°W)
Time: 20:04:40
(UTC+00:00)

Courier 1B - Pass Details

Date: 08 October 2022
Orbit: 962 x 1209 km, 28.3° (Epoch: 30 November)

Event Time Altitude Azimuth Distance (km) Brightness Sun altitude
Rises 00:15:22 0° 260° (W) 3,834 12.1 -17.4°
Reaches altitude 10° 00:21:00 10° 224° (SW) 2,803 10.4 -18.6°
Maximum altitude 00:22:20 11° 213° (SSW) 2,742 10.2 -18.8°
Drops below altitude 10° 00:23:40 10° 201° (SSW) 2,771 10.1 -19.1°
Sets 00:29:05 0° 164° (SSE) 3,663 10.3 -20.2°
